| time (UTC) | temp F | wind direction | speed MPH | gust MPH | rain 1hr in | rain 24hr in | rain mn in | humidity % | barometer mb |
| 20260505070006 | 65 | 210 | 0.0 | 8.0 | 0.00 | 0.00 | 0.00 | 46 | 1010.0 |
| 20260505064503 | 66 | 150 | 0.0 | 9.0 | 0.00 | 0.00 | 0.00 | 45 | 1010.0 |
| 20260505063005 | 66 | 150 | 2.0 | 12.0 | 0.00 | 0.00 | 0.00 | 45 | 1010.0 |
| 20260505061507 | 66 | 161 | 7.0 | 17.0 | 0.00 | 0.00 | 0.00 | 44 | 1010.1 |
| 20260505060002 | 67 | 138 | 9.0 | 17.0 | 0.00 | 0.00 | 0.00 | 44 | 1010.1 |
| 20260505054502 | 67 | 140 | 5.0 | 17.0 | 0.00 | 0.00 | 0.00 | 44 | 1010.1 |
| 20260505053001 | 67 | 131 | 2.0 | 16.0 | 0.00 | 0.00 | 0.00 | 43 | 1010.1 |
| 20260505051600 | 67 | 135 | 8.0 | 17.0 | 0.00 | 0.00 | 0.00 | 43 | 1010.1 |
| 20260505050106 | 67 | 144 | 7.0 | 15.0 | 0.00 | 0.00 | 0.00 | 43 | 1010.1 |
| 20260505041558 | 68 | 133 | 10.0 | 18.0 | 0.00 | 0.00 | 0.00 | 43 | 1009.9 |
| 20260505040057 | 68 | 119 | 11.0 | 25.0 | 0.00 | 0.00 | 0.00 | 43 | 1009.7 |
| 20260505034557 | 69 | 137 | 10.0 | 18.0 | 0.00 | 0.00 | 0.00 | 42 | 1009.6 |
| 20260505033057 | 70 | 133 | 9.0 | 25.0 | 0.00 | 0.00 | 0.00 | 40 | 1009.5 |
| 20260505031555 | 71 | 138 | 0.0 | 15.0 | 0.00 | 0.00 | 0.00 | 38 | 1009.1 |
| 20260505030055 | 71 | 105 | 10.0 | 18.0 | 0.00 | 0.00 | 0.00 | 36 | 1009.0 |
| 20260505024555 | 72 | 97 | 8.0 | 17.0 | 0.00 | 0.00 | 0.00 | 35 | 1008.8 |
| 20260505023056 | 73 | 87 | 5.0 | 22.0 | 0.00 | 0.00 | 0.00 | 33 | 1008.6 |
| 20260505021553 | 73 | 154 | 11.0 | 20.0 | 0.00 | 0.00 | 0.00 | 31 | 1008.4 |
| 20260505020054 | 74 | 144 | 14.0 | 21.0 | 0.00 | 0.00 | 0.00 | 30 | 1008.5 |
| 20260505014556 | 74 | 153 | 19.0 | 25.0 | 0.00 | 0.00 | 0.00 | 29 | 1008.3 |
| 20260505013053 | 75 | 150 | 15.0 | 25.0 | 0.00 | 0.00 | 0.00 | 29 | 1008.4 |
| 20260505011552 | 75 | 148 | 19.0 | 31.0 | 0.00 | 0.00 | 0.00 | 29 | 1008.4 |
| 20260505010109 | 75 | 162 | 18.0 | 29.0 | 0.00 | 0.00 | 0.00 | 29 | 1008.4 |
| 20260505004548 | 75 | 142 | 17.0 | 25.0 | 0.00 | 0.00 | 0.00 | 29 | 1008.4 |
| 20260505003053 | 76 | 360 | 15.0 | 27.0 | 0.00 | 0.00 | 0.00 | 29 | 1008.4 |
| 20260505001547 | 76 | 149 | 18.0 | 25.0 | 0.00 | 0.00 | 0.00 | 29 | 1008.5 |
| 20260505000049 | 77 | 162 | 12.0 | 25.0 | 0.00 | 0.00 | 0.00 | 28 | 1008.5 |
| 20260504234548 | 77 | 360 | 12.0 | 21.0 | 0.00 | 0.00 | 0.00 | 27 | 1008.2 |
| 20260504233046 | 78 | 360 | 6.0 | 12.0 | 0.00 | 0.00 | 0.00 | 26 | 1008.3 |
| 20260504231547 | 78 | 360 | 5.0 | 16.0 | 0.00 | 0.00 | 0.00 | 26 | 1008.5 |
| 20260504230046 | 77 | 360 | 7.0 | 15.0 | 0.00 | 0.00 | 0.00 | 26 | 1008.5 |
| 20260504224544 | 77 | 360 | 6.0 | 12.0 | 0.00 | 0.00 | 0.00 | 26 | 1008.8 |
| 20260504223057 | 78 | 360 | 7.0 | 13.0 | 0.00 | 0.00 | 0.00 | 27 | 1008.7 |
| 20260504221555 | 77 | 360 | 8.0 | 14.0 | 0.00 | 0.00 | 0.00 | 26 | 1009.0 |
| 20260504220043 | 77 | 260 | 5.0 | 13.0 | 0.00 | 0.00 | 0.00 | 27 | 1009.2 |
| 20260504214540 | 77 | 360 | 2.0 | 11.0 | 0.00 | 0.00 | 0.00 | 27 | 1009.4 |
| 20260504213052 | 77 | 360 | 3.0 | 8.0 | 0.00 | 0.00 | 0.00 | 27 | 1009.8 |
| 20260504211540 | 76 | 360 | 1.0 | 14.0 | 0.00 | 0.00 | 0.00 | 28 | 1009.9 |
| 20260504210035 | 76 | 360 | 2.0 | 10.0 | 0.00 | 0.00 | 0.00 | 28 | 1010.1 |
| 20260504204535 | 75 | 360 | 5.0 | 10.0 | 0.00 | 0.00 | 0.00 | 29 | 1010.3 |
| 20260504203045 | 75 | 360 | 2.0 | 14.0 | 0.00 | 0.00 | 0.00 | 29 | 1010.3 |
| 20260504201535 | 75 | 360 | 4.0 | 11.0 | 0.00 | 0.00 | 0.00 | 29 | 1010.5 |
| 20260504200031 | 75 | 360 | 0.0 | 7.0 | 0.00 | 0.00 | 0.00 | 29 | 1010.8 |
| 20260504194537 | 74 | 151 | 1.0 | 10.0 | 0.00 | 0.00 | 0.00 | 30 | 1011.0 |
| 20260504193025 | 72 | 360 | 2.0 | 9.0 | 0.00 | 0.00 | 0.00 | 31 | 1011.2 |
| 20260504191534 | 72 | 360 | 0.0 | 9.0 | 0.00 | 0.00 | 0.00 | 31 | 1011.5 |
| 20260504190023 | 72 | 360 | 4.0 | 9.0 | 0.00 | 0.00 | 0.00 | 31 | 1011.5 |
| 20260504184522 | 72 | 360 | 4.0 | 12.0 | 0.00 | 0.00 | 0.00 | 32 | 1011.5 |
| 20260504183020 | 71 | 360 | 1.0 | 9.0 | 0.00 | 0.00 | 0.00 | 33 | 1011.8 |
| 20260504181518 | 71 | 360 | 4.0 | 9.0 | 0.00 | 0.00 | 0.00 | 33 | 1011.7 |
| 20260504180019 | 71 | 360 | 2.0 | 12.0 | 0.00 | 0.00 | 0.00 | 34 | 1011.8 |
| 20260504174514 | 70 | 360 | 2.0 | 13.0 | 0.00 | 0.00 | 0.00 | 34 | 1011.6 |
| 20260504173012 | 69 | 360 | 7.0 | 14.0 | 0.00 | 0.00 | 0.00 | 36 | 1011.4 |
| 20260504171510 | 69 | 360 | 7.0 | 13.0 | 0.00 | 0.00 | 0.00 | 37 | 1011.4 |
| 20260504081556 | 66 | 135 | 16.0 | 25.0 | 0.00 | 0.00 | 0.00 | 45 | 1009.9 |
| 20260504080113 | 66 | 144 | 16.0 | 27.0 | 0.00 | 0.00 | 0.00 | 45 | 1009.4 |